Location: Vancouver
(49.2500°N, 123.1330°W)
Time: 08:54:49
(UTC-08:00)

Iridium 21 - Visible Passes

Search period start: 14 February 2016 00:00
Search period end: 24 February 2016 00:00
Orbit: 776 x 779 km, 86.4° (Epoch: 13 February)

Date Brightness Start Highest point End Pass type
(mag) Time Alt. Az. Time Alt. Az. Time Alt. Az.
14 Feb 8.4 05:14:47 10° NNE 05:18:04 16° ENE 05:21:18 10° ESE visible
14 Feb 6.4 18:15:49 10° SE 18:20:10 28° E 18:24:32 10° NNE visible
14 Feb 6.6 19:55:42 10° SSW 20:00:40 44° W 20:05:41 10° N visible
15 Feb 6.2 06:20:43 10° N 06:25:54 61° E 06:31:04 10° SSE visible
15 Feb 5.7 19:21:49 10° S 19:27:02 76° W 19:32:17 10° N visible
15 Feb 8.6 21:06:46 10° W 21:08:44 12° WNW 21:10:43 10° NW visible
16 Feb 7.2 05:47:23 10° N 05:52:13 36° ENE 05:57:00 10° SE visible
16 Feb 5.5 18:48:23 10° S 18:53:31 64° E 18:58:41 10° N visible
16 Feb 8.0 20:30:57 10° WSW 20:34:44 20° WNW 20:38:33 10° NNW visible
17 Feb 8.1 05:14:21 10° NNE 05:18:23 22° ENE 05:22:24 10° ESE visible
17 Feb 6.0 18:15:21 10° SSE 18:20:07 38° E 18:24:55 10° NNE visible
17 Feb 7.3 19:56:14 10° SW 20:00:54 32° WNW 20:05:35 10° NNW visible
18 Feb 8.6 04:41:55 10° NE 04:44:25 13° ENE 04:46:56 10° E visible
18 Feb 5.6 06:20:46 10° N 06:26:02 84° E 06:31:16 10° S visible
18 Feb 6.3 19:22:04 10° SSW 19:27:10 55° W 19:32:19 10° N visible
19 Feb 6.6 05:47:20 10° N 05:52:25 49° E 05:57:28 10° SSE visible
19 Feb 5.5 18:48:22 10° S 18:53:35 88° E 18:58:51 10° N visible
19 Feb 8.5 20:32:12 10° W 20:35:06 15° WNW 20:38:00 10° NNW visible
20 Feb 7.6 05:14:06 10° NNE 05:18:41 30° ENE 05:23:13 10° SE visible
20 Feb 5.7 18:15:05 10° SSE 18:20:07 52° E 18:25:11 10° NNE visible
20 Feb 7.9 19:56:58 10° SW 20:01:10 24° WNW 20:05:23 10° NNW visible
21 Feb 8.3 04:41:14 10° NNE 04:44:49 18° ENE 04:48:21 10° ESE visible
21 Feb 5.5 06:20:54 10° N 06:26:07 71° W 06:31:18 10° S visible
21 Feb 7.0 19:22:29 10° SSW 19:27:22 40° WNW 19:32:17 10° N visible
22 Feb 8.8 04:09:31 10° NE 04:10:47 11° ENE 04:12:03 10° ENE visible
22 Feb 5.9 05:47:21 10° N 05:52:35 68° E 05:57:46 10° SSE visible
22 Feb 5.9 18:48:31 10° SSW 18:53:42 68° W 18:58:56 10° N visible
22 Feb 8.8 20:34:21 10° WNW 20:35:31 11° WNW 20:36:40 10° NW visible
23 Feb 6.9 05:13:59 10° N 05:18:55 40° ENE 05:23:49 10° SSE visible
23 Feb 5.5 18:14:59 10° S 18:20:10 72° E 18:25:23 10° N visible
23 Feb 8.4 19:57:58 10° WSW 20:01:29 18° WNW 20:05:02 10° NNW visible
